Location: Simi Valley
(34.2690°N, 118.7810°W)
Time: 18:48:26
(UTC-07:00)

SAR-Lupe-1 - Visible Passes

Search period start: 27 March 2015 00:00
Search period end: 06 April 2015 00:00
Orbit: 481 x 485 km, 98.1° (Epoch: 28 July)

Date Brightness Start Highest point End Pass type
(mag) Time Alt. Az. Time Alt. Az. Time Alt. Az.
29 Mar 7.2 04:15:06 10° N 04:15:06 10° N 04:15:06 10° N visible
31 Mar 6.7 04:59:43 10° NNW 04:59:47 10° NNW 04:59:47 10° NNW visible
01 Apr 6.7 04:34:23 10° N 04:34:56 14° N 04:34:56 14° N visible
02 Apr 6.9 04:09:33 10° NNE 04:10:06 14° NNE 04:10:06 14° NNE visible
03 Apr 7.4 03:45:08 10° NNE 03:45:16 11° NE 03:45:16 11° NE visible
04 Apr 6.3 04:53:55 10° NNW 04:54:46 15° NNW 04:54:46 15° NNW visible
05 Apr 6.3 04:28:45 10° N 04:29:56 19° N 04:29:56 19° N visible
